DateTimeUTC,F1_A11,F1_S11,BsB_S11,BsG_S11,BsR_S11,BbsB_S11,BbsG_S11,BbsR_S11,BaB_A11,BaG_A11,BaR_A11,Tu_S11,T_S11,Uu_S11,U_S11,P_S11,T1_A11
2021-10-14T05:00:00Z,00000200,20000000,,,,,,,-000.41,-000.13,0000.04,17.2,24.0,02.6,01.7,0663.3,31.0
2021-10-14T05:01:00Z,00000200,20000000,,,,,,,0000.06,0000.14,-000.40,17.2,24.0,02.6,01.7,0663.3,31.0
2021-10-14T05:02:00Z,00000200,20000000,,,,,,,-000.14,-000.13,0000.35,17.2,24.1,02.6,01.7,0663.3,31.0
2021-10-14T05:03:00Z,00000200,60000000,,,,,,,0001.03,0000.75,0000.40,17.2,24.1,02.6,01.7,0663.3,31.0
2021-10-14T05:04:00Z,00000200,40000000,0002.94,0002.40,0001.25,0000.40,0000.21,0000.33,0000.60,0000.93,0000.61,17.4,23.9,03.0,02.0,0664.0,31.0
2021-10-14T05:05:00Z,00000200,00000000,0002.58,0002.40,0001.41,-000.10,0000.54,0000.23,0000.90,0000.37,0000.52,17.4,23.9,03.1,02.1,0664.1,30.9
2021-10-14T05:06:00Z,00000200,00000000,0002.54,0002.19,0001.48,0000.59,0000.27,-000.07,0000.27,0000.72,0000.22,17.3,23.8,03.0,02.0,0664.1,30.9
2021-10-14T05:07:00Z,00000200,00000000,0003.27,0001.94,0001.41,0000.03,0000.33,0000.37,0000.77,0000.04,0000.50,17.3,23.8,03.1,02.1,0664.1,30.9
2021-10-14T05:08:00Z,00000200,00000000,0003.06,0002.18,0001.28,0000.16,0000.38,0000.06,0000.62,0001.02,0000.63,17.3,23.7,03.1,02.1,0664.0,30.9
2021-10-14T05:09:00Z,00000200,00000000,0002.93,0001.76,0001.12,0000.45,0000.45,0000.04,0000.62,0000.40,0000.18,17.2,23.7,03.2,02.2,0664.0,30.9
2021-10-14T05:10:00Z,00000200,00000000,0002.82,0002.37,0001.47,0000.40,0000.52,0000.34,0000.50,0000.35,0000.29,17.2,23.7,03.2,02.2,0664.1,30.9
2021-10-14T05:11:00Z,00000200,00000000,0002.53,0001.84,0000.89,0000.18,0000.42,0000.01,0000.62,0000.48,0000.34,17.2,23.7,03.2,02.1,0664.0,30.9
2021-10-14T05:12:00Z,00000200,00000000,0002.86,0002.35,0001.34,0000.23,0000.33,0000.31,0000.36,0000.61,0000.05,17.2,23.7,03.2,02.1,0664.1,30.9
2021-10-14T05:13:00Z,00000200,00000000,0002.70,0002.34,0001.26,-000.32,0000.11,0000.11,0000.39,0000.47,0000.97,17.2,23.7,03.1,02.1,0664.1,31.0
2021-10-14T05:14:00Z,00000200,00000000,0002.30,0002.13,0001.38,-000.42,0000.23,-000.00,0000.99,0000.53,-000.04,17.3,23.7,03.2,02.1,0664.1,30.9
2021-10-14T05:15:00Z,00000200,00000000,0002.91,0002.35,0001.68,0000.20,0000.38,0000.41,0000.28,0000.66,0000.79,17.4,23.7,03.1,02.1,0664.0,30.9
2021-10-14T05:16:00Z,00000200,00000000,0002.81,0002.09,0001.23,0000.22,0000.31,0000.13,0000.50,0000.01,0000.05,17.4,23.8,03.2,02.2,0664.1,31.0
2021-10-14T05:17:00Z,00000200,00000000,0003.55,0002.28,0001.13,0000.22,0000.03,0000.31,0000.39,0000.45,0000.16,17.5,23.8,03.1,02.1,0664.0,31.0
2021-10-14T05:18:00Z,00000200,00000000,0002.92,0001.73,0001.33,0000.69,0000.02,0000.29,0000.31,0000.57,0000.70,17.5,23.8,03.1,02.1,0663.9,31.0
2021-10-14T05:19:00Z,00000200,00000000,0002.79,0002.17,0001.26,-000.05,0000.09,0000.25,0000.88,0000.76,0000.22,17.5,23.8,03.2,02.2,0664.0,30.9
2021-10-14T05:20:00Z,00000200,00000000,0002.77,0001.85,0000.98,0000.70,0000.34,0000.07,0000.30,-000.15,0000.21,17.4,23.8,03.1,02.1,0664.0,30.9
2021-10-14T05:21:00Z,00000200,00000000,0002.74,0001.99,0001.48,0000.12,0000.37,0000.27,0000.42,0000.37,0000.09,17.4,23.8,03.1,02.1,0663.9,30.9
2021-10-14T05:22:00Z,00000200,00000000,0002.69,0002.19,0001.28,0000.26,0000.55,0000.39,0000.18,0000.72,0000.55,17.4,23.7,03.2,02.2,0663.9,30.9
2021-10-14T05:23:00Z,00000200,00000000,0002.14,0001.67,0000.88,0000.50,0000.35,-000.08,0000.54,0000.34,0000.27,17.3,23.7,03.2,02.2,0664.0,30.9
2021-10-14T05:24:00Z,00000200,00000000,0002.58,0001.99,0001.31,0000.84,0000.61,0000.22,0000.60,0000.28,0000.13,17.3,23.7,03.1,02.1,0664.0,30.9
2021-10-14T05:25:00Z,00000200,00000000,0003.35,0002.03,0001.08,0000.78,0000.33,0000.08,0000.32,0000.12,0000.17,17.3,23.7,03.2,02.1,0664.0,30.9
2021-10-14T05:26:00Z,00000200,00000000,0002.79,0001.87,0001.64,0000.41,0000.21,0000.38,0000.66,0000.69,0000.67,17.2,23.7,03.1,02.1,0664.0,30.9
2021-10-14T05:27:00Z,00000200,00000000,0002.87,0002.22,0000.96,0000.25,0000.38,0000.11,0000.29,0000.49,-000.09,17.2,23.6,03.2,02.2,0664.0,30.9
2021-10-14T05:28:00Z,00000200,00000000,0002.82,0001.87,0000.92,0000.25,0000.10,-000.10,0000.69,0000.78,0000.73,17.3,23.6,03.2,02.2,0663.9,30.9
2021-10-14T05:29:00Z,00000200,00000000,0003.44,0001.86,0000.85,0000.24,0000.29,0000.16,0000.59,0000.66,0000.56,17.3,23.7,03.3,02.2,0664.0,30.9
2021-10-14T05:30:00Z,00000200,00000000,0002.46,0001.58,0001.21,-000.02,0000.43,0000.43,0000.62,-000.03,0000.24,17.4,23.7,03.1,02.1,0664.0,30.9
2021-10-14T05:31:00Z,00000200,00000000,0001.89,0002.07,0001.16,0000.72,0000.13,0000.04,-000.00,0000.24,0000.20,17.5,23.8,03.2,02.2,0664.0,31.0
2021-10-14T05:32:00Z,00000200,00000000,0002.45,0002.11,0001.00,-000.22,0000.60,0000.28,0000.90,0000.73,0000.44,17.5,23.8,03.1,02.1,0664.0,31.0
2021-10-14T05:33:00Z,00000200,00000000,0002.52,0001.75,0001.19,0000.35,0000.29,0000.58,0000.06,-000.04,-000.07,17.6,23.8,03.2,02.2,0664.0,31.0
2021-10-14T05:34:00Z,00000200,00000000,0002.11,0001.69,0001.11,0000.01,0000.50,0000.38,0000.55,0000.65,0000.27,17.5,23.8,03.2,02.2,0664.0,31.0
2021-10-14T05:35:00Z,00000200,00000000,0002.09,0001.87,0000.67,0000.11,0000.31,0000.29,0000.15,0000.17,0000.51,17.5,23.8,03.1,02.1,0664.0,31.0
2021-10-14T05:36:00Z,00000200,00000000,0002.90,0002.07,0000.89,0000.54,-000.08,0000.33,0000.75,0000.85,0000.45,17.4,23.8,03.1,02.1,0664.0,31.0
2021-10-14T05:37:00Z,00000200,00000000,0002.58,0001.78,0001.34,0000.13,0000.14,0000.08,0000.08,-000.12,0000.22,17.4,23.8,03.1,02.1,0664.0,30.9
2021-10-14T05:38:00Z,00000200,00000000,0001.84,0002.02,0001.01,0000.09,0000.44,0000.31,0000.62,0000.57,0000.06,17.4,23.7,03.2,02.2,0664.0,30.9
2021-10-14T05:39:00Z,00000200,00000000,0002.00,0002.17,0000.97,0000.61,0000.49,0000.18,0000.11,-000.00,0000.10,17.3,23.7,03.2,02.2,0664.0,30.9
2021-10-14T05:40:00Z,00000200,00000000,0003.09,0001.64,0000.91,0000.48,0000.38,0000.25,0000.71,0000.43,0000.53,17.3,23.7,03.2,02.2,0663.9,30.9
2021-10-14T05:41:00Z,00000200,00000000,0002.24,0001.71,0000.86,-000.12,0000.19,0000.26,0000.66,0000.85,0000.37,17.3,23.7,03.2,02.2,0663.9,30.9
2021-10-14T05:42:00Z,00000200,00000000,0002.60,0001.78,0000.87,0000.52,0000.55,0000.13,0000.39,0000.28,0000.24,17.3,23.7,03.2,02.2,0663.9,30.9
2021-10-14T05:43:00Z,00000200,00000000,0002.96,0001.78,0000.78,0000.34,-000.03,-000.06,0000.40,0000.44,0000.29,17.3,23.7,03.2,02.1,0663.8,30.9
2021-10-14T05:44:00Z,00000200,00000000,0002.15,0001.88,0001.17,0000.15,0000.11,0000.07,0000.74,0000.28,0000.52,17.4,23.7,03.2,02.2,0663.8,30.9
2021-10-14T05:45:00Z,00000200,00000000,0002.57,0001.60,0001.20,0000.44,0000.26,0000.31,0000.22,0000.47,0000.35,17.4,23.7,03.2,02.2,0663.8,31.0
2021-10-14T05:46:00Z,00000200,00000000,0002.40,0001.71,0000.78,0000.42,0000.16,-000.33,0000.31,0000.44,0000.06,17.5,23.8,03.2,02.2,0663.7,31.0
2021-10-14T05:47:00Z,00000200,00000000,0001.98,0001.37,0000.92,-000.08,0000.34,0000.25,0000.23,-000.04,0000.16,17.5,23.8,03.3,02.2,0663.7,31.0
2021-10-14T05:48:00Z,00000200,00000000,0001.79,0001.38,0000.58,0000.32,0000.45,-000.01,0000.44,0000.48,0000.19,17.4,23.8,03.3,02.3,0663.7,30.9
2021-10-14T05:49:00Z,00000200,00000000,0001.03,0001.17,0000.81,0000.29,0000.18,0000.16,0000.32,0000.14,-000.14,17.4,23.8,03.4,02.3,0663.6,30.9
2021-10-14T05:50:00Z,00000200,00000000,0002.01,0001.25,0000.82,-000.19,0000.30,0000.37,0001.05,0000.42,0000.68,17.4,23.7,03.4,02.3,0663.7,30.9
2021-10-14T05:51:00Z,00000200,00000000,0002.07,0001.51,0001.05,0000.11,0000.25,0000.08,0000.11,0000.29,0000.31,17.3,23.7,03.4,02.3,0663.7,30.9
2021-10-14T05:52:00Z,00000200,00000000,0001.94,0001.29,0000.69,0000.12,0000.24,0000.19,0000.42,0000.24,0000.19,17.3,23.7,03.3,02.2,0663.7,30.9
2021-10-14T05:53:00Z,00000200,00000000,0001.57,0001.45,0000.76,0000.14,0000.23,-000.11,0000.28,0000.43,0000.32,17.2,23.7,03.4,02.3,0663.7,30.9
2021-10-14T05:54:00Z,00000200,00000000,0001.89,0001.20,0000.74,-000.54,0000.17,0000.30,0000.38,0000.69,0000.09,17.2,23.6,03.4,02.3,0663.7,30.9
2021-10-14T05:55:00Z,00000200,00000000,0001.28,0001.47,0000.87,-000.12,0000.49,0000.43,0000.56,0000.31,0000.25,17.2,23.6,03.5,02.4,0663.7,30.9
2021-10-14T05:56:00Z,00000200,00000000,0001.78,0001.44,0000.76,0000.06,0000.62,0000.28,0000.31,0000.18,0000.32,17.1,23.6,03.4,02.3,0663.7,30.9
2021-10-14T05:57:00Z,00000200,40000000,,,,,,,-000.30,-000.17,0000.19,17.2,23.6,03.6,02.4,0663.7,30.9
2021-10-14T05:58:00Z,00000200,60000000,,,,,,,-000.04,0000.35,-000.07,16.9,23.7,03.2,02.1,0662.8,30.9
2021-10-14T05:59:00Z,00000200,20000000,,,,,,,-000.03,-000.05,0000.17,16.9,23.8,03.2,02.1,0662.8,30.9
